| time (UTC) | temp F | wind direction | speed MPH | gust MPH | rain 1hr in | rain 24hr in | rain mn in | humidity % | barometer mb |
| 20260506034555 | 48 | 350 | 1.0 | 3.0 | 0.08 | 0.84 | 0.84 | 98 | 1006.2 |
| 20260506033050 | 48 | 38 | 1.0 | 4.0 | 0.10 | 0.82 | 0.82 | 98 | 1006.2 |
| 20260506031549 | 48 | 48 | 1.0 | 4.0 | 0.12 | 0.80 | 0.80 | 97 | 1006.2 |
| 20260506030047 | 48 | 321 | 0.0 | 0.0 | 0.12 | 0.78 | 0.78 | 98 | 1006.5 |
| 20260506024546 | 48 | 321 | 0.0 | 0.0 | 0.13 | 0.76 | 0.76 | 98 | 1006.6 |
| 20260506023100 | 48 | 322 | 0.0 | 0.0 | 0.12 | 0.72 | 0.72 | 97 | 1006.1 |
| 20260506021605 | 48 | 39 | 0.0 | 5.0 | 0.12 | 0.68 | 0.68 | 97 | 1006.0 |
| 20260506020041 | 48 | 42 | 1.0 | 4.0 | 0.15 | 0.66 | 0.66 | 97 | 1005.6 |
| 20260506014540 | 48 | 30 | 2.0 | 4.0 | 0.15 | 0.63 | 0.63 | 97 | 1005.6 |
| 20260506013039 | 48 | 39 | 2.0 | 5.0 | 0.17 | 0.59 | 0.59 | 97 | 1005.7 |
| 20260506011540 | 49 | 76 | 0.0 | 2.0 | 0.14 | 0.55 | 0.55 | 97 | 1005.6 |
| 20260506010038 | 49 | 77 | 0.0 | 5.0 | 0.10 | 0.51 | 0.51 | 97 | 1005.4 |
| 20260506004536 | 48 | 92 | 0.0 | 4.0 | 0.07 | 0.48 | 0.48 | 97 | 1005.2 |
| 20260506003037 | 48 | 90 | 1.0 | 4.0 | 0.03 | 0.42 | 0.42 | 97 | 1005.1 |
| 20260506001536 | 49 | 90 | 1.0 | 3.0 | 0.04 | 0.41 | 0.41 | 97 | 1005.0 |
| 20260506000033 | 49 | 29 | 2.0 | 5.0 | 0.08 | 0.41 | 0.41 | 96 | 1005.0 |
| 20260505234530 | 49 | 32 | 1.0 | 6.0 | 0.21 | 0.41 | 0.41 | 96 | 1004.9 |
| 20260505233028 | 50 | 26 | 2.0 | 6.0 | 0.23 | 0.39 | 0.39 | 96 | 1004.9 |
| 20260505231541 | 51 | 5 | 2.0 | 3.0 | 0.22 | 0.37 | 0.37 | 96 | 1005.2 |
| 20260505230026 | 51 | 337 | 2.0 | 5.0 | 0.20 | 0.33 | 0.33 | 96 | 1005.2 |
| 20260505224520 | 52 | 338 | 2.0 | 8.0 | 0.06 | 0.19 | 0.19 | 96 | 1005.3 |
| 20260505223018 | 54 | 46 | 5.0 | 11.0 | 0.03 | 0.16 | 0.16 | 94 | 1004.6 |
| 20260505221514 | 56 | 307 | 0.0 | 3.0 | 0.03 | 0.15 | 0.15 | 96 | 1004.6 |
| 20260505220012 | 56 | 308 | 0.0 | 5.0 | 0.02 | 0.13 | 0.13 | 96 | 1004.7 |
| 20260505214512 | 56 | 273 | 1.0 | 4.0 | 0.09 | 0.13 | 0.13 | 96 | 1004.6 |
| 20260505213017 | 56 | 279 | 0.0 | 7.0 | 0.11 | 0.13 | 0.13 | 96 | 1004.6 |
| 20260505211513 | 57 | 237 | 2.0 | 6.0 | 0.11 | 0.12 | 0.12 | 95 | 1004.6 |
| 20260505210013 | 57 | 260 | 3.0 | 8.0 | 0.10 | 0.11 | 0.11 | 94 | 1004.7 |
| 20260505204506 | 57 | 288 | 3.0 | 7.0 | 0.03 | 0.04 | 0.04 | 93 | 1004.7 |
| 20260505203125 | 58 | 300 | 0.0 | 5.0 | 0.03 | 0.03 | 0.03 | 93 | 1004.4 |
| 20260505201501 | 58 | 309 | 2.0 | 9.0 | 0.01 | 0.01 | 0.01 | 91 | 1004.7 |
| 20260505200059 | 59 | 302 | 3.0 | 8.0 | 0.01 | 0.01 | 0.01 | 89 | 1004.5 |
| 20260505194557 | 60 | 287 | 4.0 | 8.0 | 0.01 | 0.01 | 0.01 | 86 | 1004.5 |
| 20260505193055 | 62 | 249 | 3.0 | 9.0 | 0.00 | 0.00 | 0.00 | 82 | 1004.6 |
| 20260505191608 | 63 | 293 | 3.0 | 9.0 | 0.00 | 0.00 | 0.00 | 80 | 1004.5 |
| 20260505190055 | 63 | 229 | 4.0 | 9.0 | 0.00 | 0.00 | 0.00 | 78 | 1004.7 |
| 20260505184555 | 63 | 256 | 2.0 | 9.0 | 0.00 | 0.00 | 0.00 | 78 | 1004.8 |
| 20260505183053 | 63 | 247 | 5.0 | 10.0 | 0.00 | 0.00 | 0.00 | 76 | 1004.9 |
| 20260505181552 | 64 | 306 | 6.0 | 15.0 | 0.00 | 0.00 | 0.00 | 75 | 1004.9 |
| 20260505180053 | 64 | 284 | 2.0 | 10.0 | 0.00 | 0.00 | 0.00 | 76 | 1004.8 |
| 20260505174550 | 64 | 269 | 4.0 | 17.0 | 0.00 | 0.00 | 0.00 | 75 | 1004.7 |
| 20260505173055 | 64 | 266 | 5.0 | 14.0 | 0.00 | 0.00 | 0.00 | 74 | 1004.5 |
| 20260505171550 | 64 | 280 | 7.0 | 14.0 | 0.00 | 0.00 | 0.00 | 72 | 1004.6 |
| 20260505170103 | 64 | 277 | 5.0 | 11.0 | 0.00 | 0.00 | 0.00 | 72 | 1004.5 |
| 20260505164547 | 65 | 270 | 7.0 | 14.0 | 0.00 | 0.00 | 0.00 | 71 | 1004.5 |
| 20260505163044 | 65 | 236 | 9.0 | 18.0 | 0.00 | 0.00 | 0.00 | 70 | 1004.5 |
| 20260505161643 | 66 | 288 | 7.0 | 15.0 | 0.00 | 0.00 | 0.00 | 69 | 1004.5 |
| 20260505153037 | 66 | 297 | 8.0 | 17.0 | 0.00 | 0.00 | 0.00 | 67 | 1003.6 |
| 20260505151553 | 66 | 257 | 5.0 | 13.0 | 0.00 | 0.00 | 0.00 | 68 | 1003.5 |
| 20260505124526 | 60 | 171 | 3.0 | 12.0 | 0.00 | 0.00 | 0.00 | 81 | 1003.7 |
| 20260505123025 | 60 | 268 | 2.0 | 10.0 | 0.00 | 0.00 | 0.00 | 81 | 1003.4 |
| 20260505121523 | 60 | 269 | 4.0 | 15.0 | 0.00 | 0.00 | 0.00 | 80 | 1003.2 |
| 20260505120020 | 60 | 254 | 7.0 | 16.0 | 0.00 | 0.00 | 0.00 | 79 | 1002.7 |
| 20260505114519 | 59 | 275 | 6.0 | 12.0 | 0.00 | 0.00 | 0.00 | 80 | 1002.3 |
| 20260505113020 | 59 | 239 | 3.0 | 19.0 | 0.00 | 0.00 | 0.00 | 82 | 1002.2 |
| 20260505111513 | 60 | 222 | 4.0 | 13.0 | 0.00 | 0.00 | 0.00 | 80 | 1002.5 |
| 20260505101505 | 63 | 273 | 4.0 | 14.0 | 0.00 | 0.00 | 0.00 | 72 | 1002.1 |
| 20260505094557 | 64 | 281 | 6.0 | 17.0 | 0.00 | 0.00 | 0.00 | 69 | 1001.7 |
| 20260505093055 | 65 | 214 | 6.0 | 18.0 | 0.00 | 0.00 | 0.00 | 68 | 1001.3 |
| 20260505091554 | 65 | 264 | 5.0 | 17.0 | 0.00 | 0.00 | 0.00 | 67 | 1001.2 |
| 20260505090104 | 65 | 196 | 6.0 | 15.0 | 0.00 | 0.00 | 0.00 | 67 | 1000.9 |
| 20260505084554 | 65 | 284 | 7.0 | 14.0 | 0.00 | 0.00 | 0.00 | 67 | 1001.1 |
| 20260505083057 | 65 | 273 | 7.0 | 19.0 | 0.00 | 0.00 | 0.00 | 67 | 1000.9 |
| 20260505081549 | 64 | 216 | 3.0 | 9.0 | 0.00 | 0.00 | 0.00 | 70 | 1001.2 |
| 20260505080053 | 64 | 250 | 5.0 | 9.0 | 0.00 | 0.00 | 0.00 | 71 | 1000.9 |
| 20260505074546 | 64 | 228 | 4.0 | 9.0 | 0.00 | 0.00 | 0.00 | 73 | 1000.8 |
| 20260505073045 | 64 | 181 | 6.0 | 17.0 | 0.00 | 0.00 | 0.00 | 72 | 1000.8 |
| 20260505071544 | 65 | 224 | 6.0 | 16.0 | 0.00 | 0.00 | 0.00 | 70 | 1000.7 |
| 20260505070045 | 65 | 266 | 4.0 | 12.0 | 0.00 | 0.00 | 0.00 | 70 | 1000.7 |
| 20260505064541 | 65 | 209 | 3.0 | 11.0 | 0.00 | 0.00 | 0.00 | 70 | 1000.8 |
| 20260505063041 | 64 | 262 | 2.0 | 7.0 | 0.00 | 0.00 | 0.00 | 71 | 1001.0 |
| 20260505061542 | 64 | 239 | 3.0 | 10.0 | 0.00 | 0.00 | 0.00 | 71 | 1001.1 |
| 20260505060036 | 64 | 226 | 2.0 | 10.0 | 0.00 | 0.00 | 0.00 | 71 | 1001.1 |
| 20260505054538 | 64 | 260 | 4.0 | 15.0 | 0.00 | 0.00 | 0.00 | 72 | 1001.4 |
| 20260505053041 | 64 | 292 | 3.0 | 10.0 | 0.00 | 0.00 | 0.00 | 72 | 1001.6 |
| 20260505051534 | 64 | 234 | 3.0 | 10.0 | 0.00 | 0.00 | 0.00 | 72 | 1001.8 |
| 20260505041525 | 64 | 251 | 3.0 | 10.0 | 0.00 | 0.00 | 0.00 | 72 | 1002.1 |